Temperature
21 20 20 20 20 20 20 21 21 21 21 21 20 19 18 17 16 16 15 14 14 14 14 13 13 13 13 13 13 13 13 13 13 13 13 13 13 13 13 13 13 12 12 12
20 19 19 19 20 20 20 20 20 20 20 21 19 18 17 17 16 15 15 14 14 13 13 13 13 13 13 13 13 13 13 13 13 13 13 13 13 12 12 12 12 12 12 12
19 19 18 19 20 20 20 20 20 20 20 19 19 18 17 16 16 15 14 14 13 13 13 13 13 13 12 13 13 13 12 12 12 12 12 12 12 12 12 12 12 12 12 12
19 18 18 20 20 19 19 19 20 19 19 18 18 17 16 15 15 15 14 13 13 13 13 13 12 12 12 12 12 12 12 12 12 12 11 11 11 12 12 11 11 11 11 11
18 18 19 19 18 18 18 19 19 19 18 17 16 16 16 15 14 14 13 13 13 12 12 12 12 12 12 12 12 12 12 12 11 11 11 11 11 11 11 11 11 11 11 11
17 17 18 19 18 17 18 18 18 18 17 16 16 18 18 15 14 13 13 13 12 12 12 12 12 12 12 12 12 12 11 11 11 11 11 11 11 11 11 11 10 10 10 10
17 17 18 18 16 17 17 19 17 17 16 16 16 17 15 14 13 13 12 12 12 12 11 12 11 11 11 11 11 11 11 11 11 11 11 11 11 11 10 10 10 10 10 10
17 17 17 16 16 17 18 17 16 16 15 15 15 14 13 13 12 12 12 12 11 11 11 11 11 11 11 11 11 11 11 11 10 10 10 10 10 10 10 10 10 10 9 9
17 18 16 15 16 15 15 15 15 15 14 14 13 13 13 12 12 12 12 11 11 11 11 11 11 11 11 11 11 10 10 10 10 10 10 10 10 10 9 9 9 9 9 9
16 17 16 14 14 13 13 14 14 13 13 13 13 12 12 12 11 11 11 11 11 10 10 10 10 10 10 10 10 10 10 10 10 9 9 9 9 9 9 9 9 9 9 9
15 16 15 14 14 13 13 13 13 13 12 12 12 12 12 11 11 11 11 10 10 10 10 10 10 10 10 10 10 9 9 9 9 9 9 9 9 9 9 8 8 8 8 8
16 16 16 15 13 13 12 12 12 12 12 12 12 11 11 11 11 11 10 10 10 10 9 9 9 9 9 9 9 9 9 8 8 8 8 8 8 8 8 8 8 8 8 7
14 13 13 13 12 12 12 12 12 11 11 11 11 11 11 10 10 10 10 10 10 10 9 9 9 9 9 9 8 8 8 8 8 8 8 7 7 7 7 7 7 7 7 7
11 11 12 12 12 11 11 11 11 11 11 11 10 10 10 10 10 10 9 9 9 9 9 9 8 8 8 8 8 8 8 8 7 7 7 7 7 7 7 7 6 6 7 7
11 11 11 11 11 10 10 10 10 10 10 10 10 10 10 9 9 9 9 9 9 9 8 8 8 8 8 8 8 7 7 7 7 7 7 6 6 6 6 6 6 6 6 6
10 10 10 10 10 10 10 10 10 10 10 9 9 9 9 9 9 8 9 9 8 8 8 8 8 8 8 7 7 7 7 7 7 6 6 6 6 5 6 6 5 5 5 5
9 10 10 10 10 9 9 9 9 9 9 9 9 9 9 8 8 8 8 8 8 8 8 7 7 7 7 7 7 7 6 6 6 6 5 5 5 5 5 5 5 5 5 5
9 9 9 9 9 9 9 9 9 9 9 9 8 8 8 8 8 8 8 7 7 7 7 7 7 7 7 6 6 6 6 6 6 5 5 5 5 5 5 5 5 4 4 5
9 9 9 9 9 9 9 9 9 9 8 8 8 8 7 7 7 7 7 7 7 7 7 7 7 6 6 6 6 6 5 5 5 5 5 5 5 5 4 4 4 4 4 4
8 8 9 9 9 9 9 8 8 8 8 8 8 7 7 7 7 7 6 6 6 6 6 6 6 6 6 5 5 5 5 5 5 5 4 4 4 4 4 4 4 4 3 3
8 8 8 8 8 8 8 8 8 8 8 7 7 7 7 6 6 6 6 6 6 6 5 5 5 5 5 5 5 5 4 4 4 4 4 4 4 4 4 4 4 3 3 3
7 7 7 7 8 8 8 7 7 7 7 7 7 6 6 6 6 6 6 5 5 5 5 5 5 5 5 5 4 4 4 4 4 4 4 4 4 3 3 3 3 3 3 3
7 7 7 7 7 7 7 7 7 7 7 6 6 6 6 6 5 5 5 5 5 5 4 4 4 4 4 4 4 4 4 4 4 4 3 3 3 3 3 3 3 3 3 3
6 6 6 6 6 6 6 6 6 6 6 6 6 5 5 5 5 5 5 5 4 4 4 4 4 4 4 4 3 3 3 3 3 3 3 3 3 3 3 3 2 2 2 2
6 6 6 6 6 6 6 6 5 5 5 5 5 5 5 5 4 4 4 4 4 4 4 4 4 3 3 3 3 3 3 3 3 3 3 3 3 3 2 2 2 2 2 2
6 5 5 5 5 5 5 5 5 5 5 5 4 4 4 4 4 4 4 4 4 3 3 3 3 3 3 3 3 3 2 2 2 2 2 2 2 2 2 2 2 2 2 2
5 5 5 5 5 5 5 4 4 4 4 4 4 4 4 4 4 4 3 3 3 3 3 3 3 2 2 2 2 2 2 2 2 2 2 2 2 2 2 2 2 1 1 1
Wind_Speed
9 6 7 9 11 12 14 13 13 12 10 8 6 5 5 4 3 3 3 3 3 3 2 2 1 1 2 2 2 2 3 3 4 4 4 4 4 4 4 4 4 4 4 4
9 7 8 11 12 13 13 13 13 12 12 6 5 5 5 5 4 4 4 4 4 4 3 3 2 2 2 3 3 3 3 3 3 4 4 4 4 4 4 4 5 5 5 5
9 6 7 11 12 13 12 11 11 12 9 5 6 6 6 5 5 5 4 4 4 4 4 4 3 2 2 3 3 3 3 3 3 4 4 4 4 4 4 5 5 5 5 5
7 6 10 5 1 5 9 10 9 8 6 6 6 5 5 5 5 5 4 4 4 4 3 3 3 3 3 3 3 3 3 3 3 4 4 4 3 3 4 4 4 4 5 5
6 9 10 6 3 4 7 9 7 7 6 5 3 4 5 4 4 4 4 4 3 3 3 3 2 3 3 3 3 3 3 4 4 4 4 4 4 4 4 4 4 4 4 4
7 8 9 3 1 3 5 7 4 5 5 4 5 6 4 3 3 3 3 3 2 2 2 2 2 2 3 3 2 3 4 4 4 4 4 4 4 4 3 3 4 4 4 4
11 10 8 1 2 5 7 3 2 4 4 5 6 4 1 2 2 3 2 2 2 2 2 2 2 2 3 3 3 3 3 3 4 4 4 4 4 3 3 3 3 3 3 3
8 9 7 3 5 5 3 3 1 3 4 5 4 2 2 2 3 3 2 2 2 2 2 1 1 2 3 3 3 2 1 2 3 3 3 3 3 3 3 3 3 3 3 3
7 5 1 3 4 3 3 4 4 4 4 4 4 3 3 3 3 3 3 3 3 3 2 1 1 2 2 2 2 1 1 1 1 2 2 3 3 3 3 3 3 3 3 3
7 7 5 5 5 4 4 5 4 4 3 4 5 4 3 3 3 3 3 3 3 3 3 2 1 2 2 2 2 2 1 1 1 1 1 2 2 3 3 3 3 3 3 3
10 9 6 6 6 5 4 4 4 3 3 4 4 4 4 4 4 3 3 3 4 4 3 2 2 1 1 1 1 2 1 1 1 1 1 2 2 2 3 3 2 3 4 4
8 6 6 6 4 4 5 5 4 3 3 3 4 4 4 4 4 4 4 4 4 4 3 3 2 1 1 1 2 2 1 1 1 1 1 2 2 1 0 2 1 2 3 4
10 7 8 8 7 6 6 6 5 5 5 5 4 4 4 4 4 3 4 4 4 4 4 3 3 2 1 1 2 2 2 1 1 1 1 2 2 2 2 1 1 2 2 3
9 8 9 8 7 6 6 6 5 5 5 5 4 4 4 4 4 4 4 5 5 4 4 4 3 2 2 2 2 2 2 1 1 1 2 2 3 2 2 3 3 3 2 1
9 10 10 8 7 6 5 5 5 5 4 4 4 4 4 5 5 5 4 4 5 5 5 4 3 2 2 2 2 3 2 2 2 2 2 3 3 3 3 3 3 3 3 2
7 6 7 7 7 6 6 6 6 6 5 4 4 4 4 4 4 4 4 4 5 5 5 4 4 3 2 3 3 3 3 2 2 2 3 3 3 3 3 3 3 3 4 4
6 6 6 6 6 6 6 6 6 5 5 5 4 4 3 3 4 4 4 4 5 4 4 4 4 3 3 3 3 3 3 3 3 3 3 3 3 4 4 3 3 4 4 3
8 8 7 7 6 6 6 5 5 5 5 5 4 4 4 5 5 5 4 4 4 4 4 4 3 3 4 4 4 3 3 3 3 4 4 4 4 4 4 4 4 5 4 3
5 6 5 5 5 5 5 5 5 5 4 4 5 5 5 5 5 5 5 5 5 5 4 3 3 4 4 4 4 3 3 4 4 4 4 4 5 5 5 5 5 5 5 4
3 3 3 3 4 4 4 4 4 4 4 4 5 6 6 5 5 5 5 5 4 4 3 3 4 4 5 5 4 4 4 4 5 5 4 5 5 5 5 5 6 6 6 5
1 2 2 2 3 3 4 4 4 5 4 5 6 6 6 6 6 6 5 5 5 4 3 4 4 4 4 4 5 5 5 5 5 5 5 5 6 6 6 6 6 6 6 6
2 2 2 2 3 3 3 4 4 4 5 5 6 6 6 6 6 6 6 5 4 4 3 4 4 4 4 4 5 5 6 6 6 6 6 6 6 6 7 7 7 7 7 7
3 3 3 3 3 3 3 4 4 4 5 5 6 6 6 6 5 5 5 5 4 4 4 4 4 5 6 5 5 6 6 6 6 6 7 7 7 7 7 8 7 7 7 7
4 4 4 4 4 4 4 4 4 4 5 5 5 6 6 5 5 5 5 4 5 5 5 4 5 6 7 5 6 6 6 6 6 7 7 7 7 7 7 7 7 7 8 8
5 5 5 5 5 5 5 5 4 4 4 4 5 5 5 4 5 4 4 4 5 6 5 6 7 7 6 6 6 6 6 6 6 6 6 7 7 7 7 7 7 8 8 8
5 5 5 6 6 5 5 4 4 4 4 4 4 4 4 4 4 4 4 5 6 6 6 5 6 6 6 6 6 7 7 7 7 6 7 6 7 7 7 7 9 8 8 8
6 5 5 5 5 5 4 4 5 5 4 4 4 4 4 3 4 4 5 5 5 5 5 5 5 5 5 6 6 6 6 6 6 6 6 6 6 6 7 8 7 7 7 7
Wind_Direction
256 260 245 245 240 228 234 246 257 266 269 270 255 249 246 243 242 246 232 218 209 213 221 227 236 235 229 218 210 203 201 210 215 214 206 207 209 212 218 219 223 222 225 223
247 239 243 251 247 239 240 246 253 265 269 269 250 242 237 237 234 241 240 226 220 220 223 229 231 236 232 224 216 209 214 220 211 210 205 208 211 212 213 217 222 218 224 228
248 237 252 251 243 234 232 233 243 255 265 246 238 234 236 241 234 236 238 232 227 227 225 229 235 236 240 235 222 213 217 227 213 213 210 208 209 209 208 214 216 218 223 229
254 242 243 248 160 232 234 240 243 256 264 246 246 247 244 241 239 241 236 232 231 233 233 234 234 235 233 228 221 218 218 223 223 216 217 216 212 215 216 216 214 220 223 228
239 249 259 247 220 213 230 248 241 244 248 236 234 241 235 225 238 246 238 233 230 229 230 229 231 231 225 219 218 219 228 229 228 224 224 224 222 226 225 221 219 223 225 226
234 245 251 249 162 200 229 246 218 225 227 212 206 241 242 200 220 232 231 225 220 217 217 220 224 220 217 216 226 238 239 237 233 227 228 231 232 232 230 227 228 227 228 228
236 246 257 284 140 183 224 271 163 218 221 210 229 269 294 194 206 212 210 214 208 204 208 217 212 213 222 227 246 259 251 237 232 228 232 235 237 236 236 228 224 226 235 242
227 238 245 134 166 210 281 351 286 248 237 235 246 261 233 213 214 211 210 213 207 199 203 212 220 222 229 246 261 259 241 237 234 230 230 236 232 233 238 235 227 230 239 253
234 249 4 174 217 266 300 289 291 274 256 234 232 235 239 231 224 221 217 217 215 205 203 210 232 243 249 266 263 242 212 225 244 247 230 231 226 225 235 237 239 242 245 256
249 252 251 246 250 261 272 280 286 278 254 231 234 236 237 233 231 229 226 216 211 205 205 222 239 245 256 268 248 210 196 209 248 270 271 246 236 230 235 241 244 250 253 261
252 257 260 246 240 249 267 279 280 269 249 237 237 236 236 230 225 225 226 220 214 210 209 220 228 236 257 259 244 230 214 216 248 265 273 275 264 255 249 253 258 261 262 263
252 257 261 265 260 261 266 268 257 255 258 248 239 240 238 236 233 228 227 223 214 210 210 217 220 218 234 246 233 227 230 239 256 268 269 272 273 273 341 276 304 287 302 294
267 278 277 276 272 261 262 262 260 257 252 253 249 244 240 237 235 231 227 221 217 212 211 209 206 209 223 235 228 224 234 250 249 257 271 277 273 272 282 265 229 246 266 280
258 263 261 256 261 260 261 262 262 261 252 244 246 243 236 234 230 227 227 227 219 210 206 201 200 212 228 233 230 232 231 229 239 255 270 274 275 269 271 282 291 298 280 258
257 256 257 262 261 256 251 247 249 250 245 242 236 232 229 228 226 227 228 223 214 206 202 199 200 219 234 234 235 236 237 242 240 256 266 270 275 273 270 276 283 293 300 300
269 259 248 244 244 241 241 241 243 246 241 237 231 227 227 226 226 226 223 217 213 211 209 209 215 227 236 235 234 235 229 220 237 249 257 259 264 268 270 275 281 287 287 294
249 248 243 238 238 240 242 244 245 245 240 235 230 223 220 218 222 225 221 221 221 219 216 216 224 232 237 239 236 238 237 223 219 237 247 251 255 259 262 266 271 278 282 293
250 253 250 244 241 243 245 245 242 240 240 238 232 222 219 218 222 224 220 217 218 221 225 228 229 231 235 239 239 238 236 237 236 239 245 251 256 258 261 267 271 275 281 281
250 251 250 244 239 237 240 244 245 243 240 231 225 226 226 228 229 227 221 220 226 232 235 233 226 230 236 236 237 232 232 236 241 245 248 251 254 257 260 264 269 273 277 277
241 237 237 237 234 237 240 242 243 243 241 235 229 228 228 229 229 224 219 224 234 243 239 237 236 238 236 227 223 231 232 236 241 243 246 250 254 260 264 267 270 272 273 271
243 235 228 238 250 253 246 241 239 240 239 232 230 232 233 230 226 224 225 231 238 240 238 225 234 237 234 229 222 232 235 241 244 248 249 252 256 260 264 266 269 270 270 270
260 257 262 265 262 262 256 248 242 239 236 233 234 237 236 231 227 228 232 239 241 226 236 239 240 235 230 231 234 238 239 240 244 248 252 254 256 259 261 265 267 269 269 269
279 277 276 273 270 269 266 255 247 242 239 238 237 236 236 234 229 228 235 237 239 230 237 242 245 237 234 236 242 243 244 245 247 250 252 255 257 258 261 264 266 267 267 268
286 284 282 280 273 266 264 265 258 253 249 249 247 245 241 238 235 234 240 228 224 228 243 246 243 243 240 245 247 249 250 251 254 257 258 258 258 259 260 262 264 265 265 266
280 280 276 269 264 263 265 266 264 259 253 251 255 251 243 239 241 238 236 237 230 233 246 247 247 246 244 248 248 249 250 252 256 261 262 261 260 260 261 262 263 265 266 266
274 272 270 265 265 265 265 262 261 260 258 259 257 254 249 244 241 240 240 241 245 247 251 252 247 242 244 246 248 251 253 253 253 254 258 262 265 266 266 265 267 266 267 266
270 271 272 271 268 262 262 261 261 262 258 255 261 262 256 250 246 244 245 247 247 248 249 250 248 245 245 245 247 252 256 257 256 257 260 262 266 268 269 270 269 268 266 263
Height
1498 1499 1500 1501 1501 1502 1502 1499 1501 1496 1496 1497 1499 1503 1505 1506 1507 1508 1508 1508 1508 1508 1509 1509 1509 1508 1508 1508 1508 1509 1509 1510 1510 1511 1511 1512 1513 1514 1514 1515 1516 1516 1517 1517
1500 1500 1500 1501 1498 1498 1499 1498 1497 1497 1496 1495 1499 1501 1503 1504 1505 1505 1505 1506 1506 1506 1506 1506 1506 1506 1506 1506 1506 1506 1506 1507 1507 1508 1508 1509 1509 1510 1511 1511 1512 1513 1513 1514
1498 1499 1501 1499 1491 1492 1494 1493 1494 1494 1493 1495 1497 1499 1500 1501 1502 1503 1503 1503 1503 1503 1503 1504 1504 1504 1503 1504 1504 1504 1504 1504 1505 1505 1505 1505 1506 1506 1507 1507 1508 1509 1509 1510
1498 1501 1504 1488 1487 1489 1490 1490 1491 1491 1492 1494 1496 1497 1499 1499 1500 1500 1500 1500 1500 1501 1501 1501 1501 1501 1501 1501 1501 1502 1502 1502 1502 1502 1502 1502 1502 1503 1503 1504 1504 1505 1506 1506
1499 1497 1490 1487 1488 1490 1490 1488 1489 1490 1492 1494 1495 1496 1496 1497 1497 1498 1498 1498 1498 1498 1498 1498 1498 1498 1499 1499 1499 1499 1499 1499 1499 1499 1499 1499 1499 1500 1500 1501 1501 1501 1502 1502
1498 1499 1494 1484 1486 1489 1491 1488 1487 1489 1490 1492 1493 1491 1491 1494 1494 1495 1495 1495 1495 1496 1496 1496 1496 1496 1496 1496 1496 1496 1496 1496 1497 1497 1497 1497 1497 1497 1497 1497 1498 1498 1498 1499
1494 1494 1484 1484 1488 1489 1492 1485 1486 1487 1488 1490 1490 1490 1492 1492 1493 1493 1493 1493 1493 1493 1493 1494 1494 1494 1494 1494 1494 1494 1494 1494 1494 1494 1494 1494 1494 1495 1495 1495 1495 1495 1495 1495
1490 1492 1488 1486 1487 1487 1485 1485 1486 1486 1487 1488 1489 1490 1490 1490 1491 1491 1491 1491 1491 1491 1491 1492 1492 1492 1492 1492 1492 1491 1491 1491 1491 1491 1491 1491 1492 1492 1492 1492 1492 1492 1492 1492
1484 1483 1483 1485 1485 1486 1486 1486 1486 1486 1487 1487 1488 1488 1488 1488 1489 1489 1489 1489 1489 1489 1489 1490 1489 1489 1489 1489 1489 1489 1489 1489 1489 1489 1489 1489 1489 1489 1489 1489 1489 1489 1489 1489
1483 1480 1482 1484 1484 1485 1485 1485 1485 1485 1485 1485 1486 1486 1486 1486 1486 1487 1487 1487 1487 1487 1487 1487 1487 1487 1487 1487 1487 1486 1487 1486 1486 1486 1486 1486 1486 1486 1486 1486 1486 1486 1486 1486
1480 1479 1481 1481 1482 1482 1483 1483 1483 1483 1483 1483 1483 1483 1484 1484 1484 1484 1484 1485 1485 1485 1485 1485 1485 1485 1485 1484 1484 1484 1484 1484 1484 1484 1484 1484 1484 1484 1483 1483 1483 1483 1483 1483
1475 1476 1477 1478 1479 1479 1480 1480 1480 1480 1480 1480 1481 1481 1481 1481 1481 1481 1482 1482 1482 1482 1482 1483 1483 1482 1482 1482 1482 1482 1482 1482 1482 1481 1481 1481 1480 1480 1480 1480 1480 1479 1479 1479
1475 1475 1476 1476 1476 1476 1477 1477 1477 1477 1477 1477 1478 1478 1478 1478 1478 1478 1479 1479 1479 1479 1479 1480 1480 1480 1480 1480 1479 1479 1480 1480 1479 1479 1478 1478 1478 1477 1477 1477 1476 1476 1476 1476
1472 1473 1472 1472 1473 1473 1473 1473 1474 1474 1474 1474 1474 1475 1475 1475 1475 1475 1475 1476 1476 1476 1477 1477 1477 1477 1477 1477 1477 1477 1477 1477 1477 1477 1476 1476 1476 1475 1475 1474 1473 1473 1473 1472
1468 1469 1469 1469 1469 1469 1469 1470 1470 1470 1470 1471 1471 1471 1471 1471 1471 1472 1472 1473 1473 1474 1474 1474 1474 1475 1475 1475 1475 1475 1475 1475 1475 1475 1474 1474 1473 1473 1472 1471 1471 1470 1470 1469
1465 1465 1465 1465 1465 1465 1465 1466 1466 1466 1467 1467 1468 1468 1468 1468 1468 1469 1469 1469 1470 1470 1471 1471 1471 1472 1472 1472 1472 1472 1472 1472 1472 1472 1472 1471 1470 1470 1469 1469 1468 1467 1466 1466
1461 1461 1461 1461 1461 1461 1462 1462 1463 1463 1464 1464 1464 1464 1465 1465 1465 1465 1466 1466 1466 1467 1467 1468 1468 1468 1469 1469 1469 1469 1469 1468 1468 1469 1468 1468 1467 1467 1466 1466 1465 1464 1463 1463
1458 1458 1458 1458 1458 1458 1458 1459 1459 1460 1460 1460 1461 1461 1461 1462 1462 1462 1462 1463 1463 1464 1464 1464 1465 1465 1465 1465 1465 1465 1465 1465 1465 1465 1464 1464 1464 1464 1463 1462 1461 1461 1460 1459
1454 1454 1454 1455 1455 1455 1455 1456 1456 1456 1457 1457 1457 1457 1458 1458 1458 1459 1459 1459 1460 1460 1460 1460 1460 1461 1461 1461 1461 1461 1461 1461 1461 1461 1461 1461 1460 1460 1459 1459 1458 1457 1456 1455
1451 1451 1452 1452 1452 1453 1453 1453 1453 1453 1453 1453 1453 1454 1454 1454 1455 1455 1455 1456 1456 1456 1456 1456 1456 1457 1457 1457 1457 1457 1457 1457 1457 1457 1457 1457 1456 1456 1455 1454 1453 1453 1452 1450
1449 1449 1449 1449 1450 1450 1450 1449 1449 1449 1449 1450 1450 1450 1450 1451 1451 1451 1451 1452 1452 1452 1452 1452 1452 1452 1453 1453 1453 1453 1453 1453 1453 1453 1453 1452 1452 1451 1450 1449 1449 1448 1447 1446
1448 1447 1447 1447 1447 1446 1446 1446 1446 1446 1446 1446 1446 1446 1446 1446 1447 1447 1447 1448 1448 1448 1448 1448 1448 1448 1448 1448 1448 1448 1449 1449 1449 1448 1448 1447 1447 1446 1445 1445 1444 1443 1442 1441
1446 1445 1445 1444 1444 1443 1443 1443 1442 1442 1442 1441 1441 1442 1442 1442 1442 1443 1443 1443 1443 1443 1443 1443 1443 1443 1443 1443 1443 1443 1443 1443 1443 1443 1442 1442 1441 1441 1440 1439 1438 1437 1436 1435
1443 1443 1442 1442 1441 1440 1439 1439 1438 1438 1437 1437 1437 1437 1438 1437 1437 1438 1438 1438 1438 1438 1439 1438 1439 1439 1438 1438 1438 1438 1438 1438 1437 1437 1437 1436 1436 1435 1434 1433 1432 1431 1430 1429
1440 1440 1439 1438 1438 1437 1436 1435 1434 1434 1433 1433 1433 1433 1433 1433 1433 1433 1433 1433 1434 1434 1434 1433 1433 1433 1433 1432 1432 1432 1432 1432 1432 1431 1431 1430 1429 1429 1428 1427 1426 1425 1424 1423
1437 1436 1435 1434 1434 1433 1432 1431 1430 1430 1429 1429 1429 1428 1428 1428 1428 1428 1428 1428 1429 1428 1428 1428 1428 1427 1427 1427 1426 1426 1426 1426 1426 1425 1424 1424 1423 1422 1421 1421 1420 1419 1417 1416
1432 1431 1431 1430 1429 1429 1428 1427 1427 1426 1425 1425 1424 1424 1424 1424 1424 1423 1423 1423 1423 1423 1423 1422 1422 1421 1421 1421 1421 1421 1420 1420 1419 1419 1418 1417 1416 1416 1415 1414 1413 1412 1411 1410